Powrót do katalogu

STARLINK-30298

AktywnyŁącznośćVLEO
NORAD 57665·PAYLOAD·🇺🇸 United States

Wystrzelony Aug 22, 2023 z Vandenberg Space Force Base

Loading…

Następne Przeloty (najbliższe 24 godziny)

TLE

ŚwieżeSource: CelesTrak SupGP

Epoka: Sep 14, 2026, 20:50 UTC

1 57665C 23124C   26257.86854167  .00047753  00000+0  14114-2 0  2573
2 57665  53.1587  45.6926 0001247  82.1765   0.5157 15.34356086    15

Śledź STARLINK-30298 w czasie rzeczywistym z AllMySat

Download on the App Store